Flag for Israel Weather past 2 weeks in Ra'anana, Israel

Now
86 °F

Sunny.


Feels Like: 92 °F
Forecast: 74 / 91 °F
Wind: 12 mph from Northwest

Location: Dov Airport

Current Time: Aug 20, 2014 at 4:28:30 PM

Latest Report: Aug 20, 2014 at 3:50 PM


Visibility: 10 mi

Pressure: 29.86 "Hg

Humidity: 62%

Dew point: 72 °F

Location of Ra'ananaLocation

Historic Weather in Ra'anana — Graph

°F

Ra'anana temperature yesterday

Maximum temperature yesterday: 88 °F (at 9:50 AM)
Minimum temperature yesterday: 79 °F (at 5:50 AM)
Average temperature yesterday: 85 °F

Past Weeks' High & Low Weather Summary

 TemperatureHumidityPressure
High90 °F (Aug 5, 2:50 PM)89% (Aug 14, 4:50 AM)29.92 "Hg (Aug 14, 4:50 AM)
Low77 °F (Aug 7, 4:50 AM)59% (Aug 6, 11:50 AM)29.59 "Hg (Aug 17, 3:50 PM)
Average84 °F70%29.74 "Hg
* Reported Aug 5 2:50 PM — Aug 20 2:50 PM, Ra'anana, Weather by CustomWeather, © 2014

Note: Actual official high and low records may vary slightly from our data, if they occured in-between our weather recording intervals... More about our weather records

Advertising

Ra'anana weather history for previous 24 hours

 ConditionsComfort  
Time TempWeatherWind HumidityBarometerVisibility
2:50 PM
Aug 20
88 °FSunny.12 mph59%29.86 "Hg10 mi
1:50 PM86 °FSunny.12 mph59%29.89 "Hg10 mi
10:50 AM86 °FPassing clouds.9 mph59%29.92 "HgN/A
9:50 AM84 °FScattered clouds.7 mph62%29.92 "HgN/A
8:50 AM84 °FScattered clouds.5 mph62%29.92 "HgN/A
7:50 AM82 °FScattered clouds.5 mph66%29.89 "HgN/A
6:50 AM79 °FPassing clouds.3 mph74%29.89 "HgN/A
5:50 AM77 °FPassing clouds.3 mph79%29.86 "HgN/A
4:50 AM79 °FClear.5 mph74%29.86 "Hg10 mi
4:00 AM79 °FClear.3 mph74%29.86 "Hg10 mi
10:50 PM
Aug 19
82 °FClear.2 mph66%29.89 "Hg10 mi
9:50 PM82 °FClear.5 mph66%29.86 "Hg10 mi
8:50 PM82 °FPassing clouds.6 mph70%29.86 "HgN/A
7:50 PM82 °FPassing clouds.8 mph70%29.83 "HgN/A
6:50 PM84 °FPassing clouds.9 mph66%29.83 "HgN/A
5:50 PM86 °FPassing clouds.10 mph62%29.83 "HgN/A
4:50 PM86 °FPassing clouds.13 mph66%29.80 "HgN/A
Weather by CustomWeather, © 2014

See weather overviewHow to use our weather pages